This demonstration page uses our WeatherBlox Daily Observations layout. Learn more.

Left ArrowRight Arrow

Hourly Observations for May 13, 2021

Temp ( °F °C ) Dew Point ( °F °C ) Humidity (%) Winds ( mph kmh ) Pressure ( in mb ) Visibility ( mi km ) Precip ( " mm )
12:15 am 00:15 Partly Cloudy 45 7 41 5 87 87 NNW 6 9 30.26 1025 10 16.0934 N/A
12:35 am 00:35 Clear 45 7 41 5 87 87 NNW 3 6 30.27 1025 10 16.0934 N/A
12:55 am 00:55 Clear 46 8 39 4 76 76 NNW 5 7 30.26 1025 10 16.0934 N/A
1:15 am 01:15 Clear 45 7 41 5 87 87 N 3 6 30.27 1025 10 16.0934 N/A
1:35 am 01:35 Clear 43 6 39 4 87 87 NNW 6 9 30.27 1025 10 16.0934 N/A
1:55 am 01:55 Clear 43 6 39 4 87 87 NNW 5 7 30.27 1025 10 16.0934 N/A
2:15 am 02:15 Partly Cloudy 45 7 39 4 81 81 N N/A 30.27 1025 10 16.0934 N/A
2:35 am 02:35 Mostly Cloudy 43 6 39 4 87 87 NNW 5 7 30.27 1025 10 16.0934 N/A
2:55 am 02:55 Cloudy 43 6 41 5 93 93 NW 3 6 30.27 1025 10 16.0934 N/A
3:15 am 03:15 Cloudy 45 7 41 5 87 87 NNW 7 11 30.27 1025 10 16.0934 N/A
3:35 am 03:35 Mostly Cloudy 48 9 37 3 66 66 N 5 7 30.27 1025 10 16.0934 N/A
3:55 am 03:55 Mostly Cloudy 48 9 37 3 66 66 N 6 9 30.28 1025 10 16.0934 N/A
4:15 am 04:15 Mostly Cloudy 50 10 36 2 58 58 NNE 3 6 30.28 1025 10 16.0934 N/A
4:35 am 04:35 Mostly Cloudy 50 10 37 3 62 62 NNE 3 6 30.29 1026 10 16.0934 N/A
4:55 am 04:55 Cloudy 46 8 37 3 71 71 N 6 9 30.29 1026 10 16.0934 N/A
5:15 am 05:15 Cloudy 48 9 37 3 66 66 NNE 7 11 30.29 1026 10 16.0934 N/A
5:35 am 05:35 Cloudy 48 9 37 3 66 66 N 6 9 30.29 1026 10 16.0934 N/A
5:55 am 05:55 Cloudy 46 8 37 3 71 71 NNE 6 9 30.29 1026 10 16.0934 N/A
6:15 am 06:15 Cloudy 48 9 37 3 66 66 NNE 6 9 30.3 1026 10 16.0934 N/A
6:35 am 06:35 Partly Cloudy 48 9 36 2 62 62 NNE 7 11 30.3 1026 10 16.0934 N/A
6:55 am 06:55 Partly Cloudy 50 10 36 2 58 58 N 7 11 30.31 1026 10 16.0934 N/A
7:15 am 07:15 Sunny 50 10 37 3 62 62 N 6 9 30.31 1026 10 16.0934 N/A
7:35 am 07:35 Mostly Cloudy 52 11 39 4 62 62 N N/A 30.31 1027 10 16.0934 N/A
7:55 am 07:55 Mostly Cloudy 54 12 37 3 54 54 N 3 6 30.31 1027 10 16.0934 N/A
8:15 am 08:15 Sunny 55 13 37 3 51 51 N 6 9 30.32 1027 10 16.0934 N/A
8:35 am 08:35 Sunny 55 13 34 1 44 44 N 9 15 30.32 1027 10 16.0934 N/A
8:55 am 08:55 Sunny 59 15 34 1 39 39 NNW 9 15 30.32 1027 10 16.0934 N/A
9:15 am 09:15 Sunny 59 15 34 1 39 39 N 7 11 30.32 1027 10 16.0934 N/A
9:35 am 09:35 Sunny 59 15 34 1 39 39 N 7 11 30.32 1027 10 16.0934 N/A
9:55 am 09:55 Sunny 61 16 36 2 39 39 N 8 13 30.32 1027 10 16.0934 N/A
10:15 am 10:15 Sunny 61 16 36 2 39 39 NNE 3 6 30.32 1027 10 16.0934 N/A
10:35 am 10:35 Sunny 61 16 34 1 36 36 N 10 17 30.32 1027 10 16.0934 N/A
10:55 am 10:55 Sunny 61 16 32 undefined 34 34 N 6 9 30.32 1027 10 16.0934 N/A
11:15 am 11:15 Sunny 63 17 32 undefined 32 32 NW 3 6 30.32 1027 10 16.0934 N/A
11:35 am 11:35 Sunny 63 17 32 undefined 32 32 N 5 7 30.31 1026 10 16.0934 N/A
11:55 am 11:55 Sunny 63 17 34 1 34 34 N 6 9 30.31 1026 10 16.0934 N/A
12:15 pm 12:15 Sunny 63 17 32 undefined 32 32 N 9 15 30.31 1026 10 16.0934 N/A
12:35 pm 12:35 Sunny 64 18 36 2 34 34 WNW 7 11 30.29 1026 10 16.0934 N/A
12:55 pm 12:55 Sunny 64 18 34 1 32 32 NE 12 19 30.28 1026 10 16.0934 N/A
1:15 pm 13:15 Sunny 64 18 34 1 32 32 NNE 5 7 30.27 1025 10 16.0934 N/A
1:35 pm 13:35 Sunny 66 19 34 1 30 30 NNE 9 15 30.27 1025 10 16.0934 N/A
1:55 pm 13:55 Partly Cloudy 64 18 36 2 34 34 NNW 12 19 30.26 1025 10 16.0934 N/A
2:15 pm 14:15 Sunny 68 20 37 3 33 33 NW 7 11 30.26 1025 10 16.0934 N/A
2:35 pm 14:35 Partly Cloudy 66 19 36 2 32 32 NNE 5 7 30.26 1025 10 16.0934 N/A
2:55 pm 14:55 Mostly Cloudy 66 19 36 2 32 32 WSW 3 6 30.25 1024 10 16.0934 N/A
3:15 pm 15:15 Partly Cloudy 68 20 37 3 33 33 NW 12 19 30.23 1024 10 16.0934 N/A
3:35 pm 15:35 Partly Cloudy 68 20 36 2 30 30 NNW 5 7 30.23 1024 10 16.0934 N/A
3:55 pm 15:55 Mostly Cloudy 68 20 34 1 28 28 NE 8 13 30.23 1024 10 16.0934 N/A
4:15 pm 16:15 Mostly Cloudy 68 20 34 1 28 28 ENE 12 19 30.22 1023 10 16.0934 N/A
4:35 pm 16:35 Mostly Cloudy 68 20 34 1 28 28 NNE 8 13 30.21 1023 10 16.0934 N/A
4:55 pm 16:55 Mostly Cloudy 68 20 36 2 30 30 ENE 7 11 30.21 1023 10 16.0934 N/A
5:35 pm 17:35 Mostly Cloudy 68 20 34 1 28 28 ENE 6 9 30.21 1023 10 16.0934 N/A
5:55 pm 17:55 Cloudy 68 20 36 2 30 30 NE 12 19 30.21 1023 10 16.0934 N/A
6:15 pm 18:15 Cloudy 66 19 34 1 30 30 NE 7 11 30.21 1023 10 16.0934 N/A
6:35 pm 18:35 Cloudy 64 18 34 1 32 32 NE 7 11 30.21 1023 10 16.0934 N/A
6:55 pm 18:55 Mostly Cloudy 64 18 36 2 34 34 NE 5 7 30.21 1023 10 16.0934 N/A
7:15 pm 19:15 Mostly Cloudy 64 18 34 1 32 32 NNE 5 7 30.21 1023 10 16.0934 N/A
7:35 pm 19:35 Partly Cloudy 64 18 34 1 32 32 NNE 5 7 30.22 1024 10 16.0934 N/A
7:55 pm 19:55 Sunny 64 18 34 1 32 32 NNE 3 6 30.22 1024 10 16.0934 N/A
8:15 pm 20:15 Partly Cloudy 63 17 34 1 34 34 N N/A 30.23 1024 10 16.0934 N/A
8:35 pm 20:35 Clear 61 16 37 3 42 42 N N/A 30.24 1024 10 16.0934 N/A
8:55 pm 20:55 Clear 59 15 39 4 48 48 N N/A 30.24 1024 10 16.0934 N/A
9:15 pm 21:15 Clear 55 13 41 5 59 59 NW 3 6 30.25 1024 10 16.0934 N/A
9:35 pm 21:35 Clear 54 12 41 5 63 63 N N/A 30.25 1024 10 16.0934 N/A
9:55 pm 21:55 Clear 52 11 43 6 72 72 N N/A 30.26 1025 10 16.0934 N/A
10:15 pm 22:15 Clear 52 11 43 6 72 72 N N/A 30.26 1025 10 16.0934 N/A
10:35 pm 22:35 Clear 52 11 43 6 72 72 N N/A 30.26 1025 10 16.0934 N/A
10:55 pm 22:55 Clear 50 10 43 6 76 76 WNW 3 6 30.27 1025 10 16.0934 N/A
11:15 pm 23:15 Clear 50 10 43 6 76 76 W 3 6 30.27 1025 10 16.0934 N/A
11:35 pm 23:35 Clear 48 9 41 5 76 76 N N/A 30.27 1025 10 16.0934 N/A
11:55 pm 23:55 Clear 48 9 43 6 82 82 N N/A 30.27 1025 10 16.0934 N/A

Powered by AerisWeather